User: anonymous   Login
Location: Unspecified
(44.0704°N, 88.6889°W)
Time: 08:56:38
(UTC+02:00)
Language:

Vanguard 2 Rocket - Orbit

View from above orbital plane
View from above orbital plane
View from above satellite
View from above satellite

Ground track
Ground track

The orbit data is extracted from the following two-line orbital elements,

1    12U 59001B   20293.41783128 +.00000353 +00000-0 +20920-3 0  9995
2    12 032.8997 277.2706 1666145 007.6693 354.6351 11.44335858536759
Epoch (UTC): 19 October 2020 10:01:40
Eccentricity: 0.1666145
inclination: 32.8997°
perigee height: 554 km
apogee height: 3326 km
right ascension of ascending node: 277.2706°
argument of perigee: 7.6693°
revolutions per day: 11.44335858
mean anomaly at epoch: 354.6351°
orbit number at epoch: 53675

The dashed part of the orbit path shows where the satellite is in the earth's shadow,  

DLR